Location: Zagreb
(45.8000°N, 16.0000°E)
Time: 02:08:46
(UTC+01:00)

S-56A Canister/Altair - Pass Details

Date: 02 October 2020
Orbit: 633 x 2499 km, 38.9° (Epoch: 25 October)

Event Time Altitude Azimuth Distance (km) Brightness Sun altitude
Rises 19:16:39 0° 280° (W) 6,152 14.4 -8.3°
Reaches altitude 10° 19:21:05 10° 275° (W) 5,050 13.4 -9.1°
Maximum altitude 19:33:58 44° 210° (SSW) 2,607 10.4 -11.3°
Drops below altitude 10° 19:43:31 10° 143° (SE) 3,772 10.6 -13.0°
Enters shadow 19:45:11 - 139° (SE) 4,195 10.8 -13.3°
